Location: Newark
(35.0033°N, 81.0878°W)
Time: 06:29:06
(UTC+00:00)

Envisat - Pass Details

Date: 24 October 2020
Orbit: 764 x 766 km, 98.1° (Epoch: 30 November)

Event Time Altitude Azimuth Distance (km) Brightness Sun altitude
Rises 00:02:51 0° 217° (SW) 3,219 6.8 -17.8°
Reaches altitude 10° 00:06:52 10° 249° (WSW) 2,299 6.5 -18.6°
Maximum altitude 00:08:36 12° 269° (W) 2,188 6.6 -19.0°
Drops below altitude 10° 00:10:20 10° 289° (WNW) 2,305 6.5 -19.3°
Sets 00:14:24 0° 322° (NW) 3,237 6.8 -20.2°
